Location: Newark
(31.5350°N, 35.0986°E)
Time: 07:01:58
(UTC+00:00)

Envisat - Visible Passes

Search period start: 26 August 2019 00:00
Search period end: 05 September 2019 00:00
Orbit: 764 x 766 km, 98.1° (Epoch: 25 August)

Date Brightness Start Highest point End Pass type
(mag) Time Alt. Az. Time Alt. Az. Time Alt. Az.
26 Aug 4.3 16:28:45 10° S 16:33:34 45° W 16:38:26 10° NNW visible
28 Aug 5.5 16:55:08 10° SSW 16:59:11 24° W 17:03:15 10° NW visible
30 Aug 6.0 17:22:48 10° WSW 17:24:53 12° W 17:26:57 10° WNW visible
31 Aug 5.0 16:43:25 10° SSW 16:47:53 31° W 16:52:22 10° NW visible
02 Sep 5.8 17:10:23 10° SW 17:13:32 17° W 17:16:42 10° NW visible
03 Sep 4.5 16:31:51 10° SSW 16:36:35 40° W 16:41:21 10° NNW visible
